Radiation Dose measured at exhaust stack monitor of Fukushima Daiichi Nuclear Power Station
Date,Time,Unit 5 6 shared exhaust cylinders,Wind Direction,Wind Velocity(m/s)
2021/07/12,00:00,3.8,west-southwest,2.3
2021/07/12,00:10,3.9,west-northwest,0.9
2021/07/12,00:20,4.0,north,1.7
2021/07/12,00:30,3.9,northwest,2.3
2021/07/12,00:40,3.9,northwest,3.3
2021/07/12,00:50,3.9,north-northwest,3.0
2021/07/12,01:00,3.8,northwest,1.9
2021/07/12,01:10,3.9,west-northwest,2.2
2021/07/12,01:20,3.9,northwest,2.8
2021/07/12,01:30,3.7,west-northwest,3.9
2021/07/12,01:40,3.8,northwest,3.5
2021/07/12,01:50,3.9,west-northwest,2.5
2021/07/12,02:00,4.0,west,2.0
2021/07/12,02:10,3.8,west,2.0
2021/07/12,02:20,3.7,west-southwest,1.1
2021/07/12,02:30,3.9,southwest,1.2
2021/07/12,02:40,3.9,south-southwest,1.1
2021/07/12,02:50,3.8,west-southwest,1.1
2021/07/12,03:00,3.8,west,1.1
2021/07/12,03:10,4.0,west,1.4
2021/07/12,03:20,3.9,west,0.9
2021/07/12,03:30,3.9,west-northwest,0.6
2021/07/12,03:40,4.0,west,1.2
2021/07/12,03:50,4.0,west-southwest,1.4
2021/07/12,04:00,3.9,southwest,1.5
2021/07/12,04:10,3.9,south-southwest,1.9
2021/07/12,04:20,3.9,south,2.0
2021/07/12,04:30,3.8,south-southeast,0.8
2021/07/12,04:40,4.1,-,CALM
2021/07/12,04:50,3.7,west-southwest,0.6
2021/07/12,05:00,3.8,-,CALM
2021/07/12,05:10,3.8,northwest,0.9
2021/07/12,05:20,4.1,west-northwest,1.1
2021/07/12,05:30,4.0,southwest,1.7
2021/07/12,05:40,3.8,south-southwest,2.3
2021/07/12,05:50,4.0,south-southwest,4.9
2021/07/12,06:00,3.9,southwest,4.3
2021/07/12,06:10,4.0,south-southwest,3.6
2021/07/12,06:20,3.8,southwest,2.0
2021/07/12,06:30,4.0,southwest,1.4
2021/07/12,06:40,3.8,-,CALM
2021/07/12,06:50,3.9,west-northwest,0.8
2021/07/12,07:00,3.9,northwest,0.6
2021/07/12,07:10,3.7,north,0.9
2021/07/12,07:20,4.0,north,1.5
2021/07/12,07:30,3.7,north,1.4
2021/07/12,07:40,3.8,northeast,0.9
2021/07/12,07:50,4.0,east-southeast,1.5
2021/07/12,08:00,3.8,south-southeast,1.5
2021/07/12,08:10,3.9,south,1.1
2021/07/12,08:20,3.9,southeast,2.2
2021/07/12,08:30,3.8,southeast,0.8
2021/07/12,08:40,3.8,east-southeast,1.2
2021/07/12,08:50,4.0,east,2.2
2021/07/12,09:00,3.8,east-northeast,1.2
2021/07/12,09:10,4.0,east,1.1
2021/07/12,09:20,4.0,southeast,1.9
2021/07/12,09:30,4.0,southeast,2.0
2021/07/12,09:40,3.9,southeast,3.3
2021/07/12,09:50,3.9,southeast,3.2
2021/07/12,10:00,3.7,southeast,4.1
2021/07/12,10:10,3.9,southeast,3.6
2021/07/12,10:20,4.0,southeast,3.2
2021/07/12,10:30,4.1,south-southeast,2.3
2021/07/12,10:40,3.9,southeast,3.3
2021/07/12,10:50,3.9,south-southeast,3.6
2021/07/12,11:00,4.0,south-southeast,3.8
2021/07/12,11:10,3.9,south-southeast,3.7
2021/07/12,11:20,3.9,south-southeast,4.2
2021/07/12,11:30,4.0,southeast,3.2
2021/07/12,11:40,3.8,south-southeast,2.8
2021/07/12,11:50,4.1,south-southeast,3.7
2021/07/12,12:00,4.0,south-southeast,3.4
2021/07/12,12:10,4.0,southeast,2.0
2021/07/12,12:20,4.0,southeast,2.5
2021/07/12,12:30,3.8,south,2.5
2021/07/12,12:40,3.8,south-southeast,5.2
2021/07/12,12:50,4.0,south-southeast,4.0
2021/07/12,13:00,3.9,south-southeast,5.6
2021/07/12,13:10,4.0,south,5.6
2021/07/12,13:20,3.9,south-southeast,5.3
2021/07/12,13:30,3.9,south,4.6
2021/07/12,13:40,3.8,south-southwest,6.1
2021/07/12,13:50,3.9,south-southwest,5.2
2021/07/12,14:00,3.9,southwest,4.1
2021/07/12,14:10,3.7,south,5.9
2021/07/12,14:20,4.0,south,6.5
2021/07/12,14:30,3.8,south-southwest,5.6
2021/07/12,14:40,3.9,south-southwest,7.3
2021/07/12,14:50,3.9,south,6.3
2021/07/12,15:00,3.8,south,5.9
2021/07/12,15:10,3.9,south-southwest,5.9
2021/07/12,15:20,4.0,south,4.9
2021/07/12,15:30,3.8,south-southwest,4.7
2021/07/12,15:40,3.8,south-southwest,5.2
2021/07/12,15:50,3.9,south-southwest,4.6
2021/07/12,16:00,3.9,south,5.0
2021/07/12,16:10,4.0,south,4.9
2021/07/12,16:20,3.9,south,5.4
2021/07/12,16:30,4.0,south,5.3
2021/07/12,16:40,3.9,south,4.8
2021/07/12,16:50,3.9,south,5.9
2021/07/12,17:00,3.8,south,3.9
2021/07/12,17:10,3.9,south,3.7
2021/07/12,17:20,3.8,south,5.7
2021/07/12,17:30,4.0,south,3.7
2021/07/12,17:40,3.8,south,3.2
2021/07/12,17:50,3.8,south-southeast,2.3
2021/07/12,18:00,3.7,south,3.8
2021/07/12,18:10,4.0,south,3.9
2021/07/12,18:20,3.7,south-southwest,3.5
2021/07/12,18:30,3.9,south-southwest,3.2
2021/07/12,18:40,3.9,southwest,3.0
2021/07/12,18:50,3.8,southwest,2.9
2021/07/12,19:00,3.9,southwest,2.8
2021/07/12,19:10,3.9,southwest,1.7
2021/07/12,19:20,3.8,south-southwest,2.2
2021/07/12,19:30,3.9,west-southwest,1.4
2021/07/12,19:40,3.9,northwest,0.9
2021/07/12,19:50,3.8,northwest,1.2
2021/07/12,20:00,4.0,west-northwest,2.0
2021/07/12,20:10,3.8,west-northwest,2.5
2021/07/12,20:20,3.8,west,2.0
2021/07/12,20:30,3.7,west-northwest,3.0
2021/07/12,20:40,3.9,northwest,3.2
2021/07/12,20:50,3.9,west-northwest,3.4
2021/07/12,21:00,3.9,west-northwest,1.7
2021/07/12,21:10,4.2,north-northeast,1.5
2021/07/12,21:20,4.0,north-northeast,2.8
2021/07/12,21:30,3.8,north,2.5
2021/07/12,21:40,3.8,north-northwest,1.5
2021/07/12,21:50,3.9,north-northeast,1.2
2021/07/12,22:00,3.9,north-northeast,1.1
2021/07/12,22:10,3.9,north-northeast,1.7
2021/07/12,22:20,3.8,north,2.0
2021/07/12,22:30,3.9,north,2.2
2021/07/12,22:40,3.9,north-northwest,2.2
2021/07/12,22:50,3.9,north-northwest,2.5
2021/07/12,23:00,3.9,north-northwest,2.3
2021/07/12,23:10,3.8,north-northwest,2.5
2021/07/12,23:20,3.9,north-northwest,2.9
2021/07/12,23:30,3.9,north-northwest,3.3
2021/07/12,23:40,3.9,north-northwest,3.4
2021/07/12,23:50,4.0,north-northwest,2.6
